When you browse on this site, cookies collect data to enhance your experience and personalize the content and advertising you see.
Visit our Privacy Policy to learn more. By continuing to use the site, you agree to this use of cookies and data.
  • In France
  • List of Countries
  • For 7 days
  • Water Temperature
  • Satellite Maps
  • Weather Map
  • Weather Widgets
  • user-avatar
    Login

    Hourly Weather Sofia

    Today, 22 May, Wednesday

    Time Temperature Precipitation Wind Pressure Humidity
    00:00 +11°C° 0 mm 1 mps 709 mmHg 81%
    01:00 +11°C° 0 mm 1 mps 709 mmHg 82%
    02:00 +10°C° 0 mm 1 mps 709 mmHg 83%
    03:00 +10°C° 0 mm 1 mps 709 mmHg 83%
    04:00 +10°C° 0 mm 1 mps 709 mmHg 83%
    05:00 +10°C° 0 mm 1 mps 709 mmHg 83%
    06:00 +12°C° 0 mm 1 mps 709 mmHg 76%
    07:00 +14°C° 0 mm 2 mps 710 mmHg 69%
    08:00 +16°C° 0 mm 2 mps 710 mmHg 63%
    09:00 +18°C° 0 mm 2 mps 710 mmHg 57%
    10:00 +19°C° 0 mm 2 mps 710 mmHg 52%
    11:00 +21°C° 0 mm 3 mps 710 mmHg 46%
    12:00 +22°C° 0 mm 3 mps 710 mmHg 45%
    13:00 +24°C° 0 mm 2 mps 710 mmHg 43%
    14:00 +24°C° 0 mm 2 mps 710 mmHg 41%
    15:00 +24°C° 0.1 mm 2 mps 709 mmHg 44%
    16:00 +24°C° 0.1 mm 3 mps 709 mmHg 46%
    17:00 +22°C° 0.1 mm 3 mps 709 mmHg 49%
    18:00 +20°C° 0.2 mm 2 mps 709 mmHg 57%
    19:00 +19°C° 0.2 mm 1 mps 708 mmHg 65%
    20:00 +16°C° 0.2 mm 1 mps 708 mmHg 73%
    21:00 +15°C° 0 mm 1 mps 708 mmHg 76%
    22:00 +14°C° 0 mm 1 mps 708 mmHg 79%
    23:00 +13°C° 0 mm 1 mps 709 mmHg 82%

    Tomorrow, 23 May, Thursday

    Time Temperature Precipitation Wind Pressure Humidity
    00:00 +13°C° 0 mm 1 mps 709 mmHg 83%
    01:00 +12°C° 0 mm 1 mps 709 mmHg 85%
    02:00 +12°C° 0 mm 1 mps 709 mmHg 86%
    03:00 +12°C° 0 mm 1 mps 709 mmHg 88%
    04:00 +11°C° 0 mm 1 mps 709 mmHg 89%
    05:00 +11°C° 0 mm 1 mps 709 mmHg 90%
    06:00 +13°C° 0 mm 1 mps 709 mmHg 84%
    07:00 +15°C° 0 mm 1 mps 709 mmHg 77%
    08:00 +16°C° 0 mm 2 mps 710 mmHg 71%
    09:00 +18°C° 0.1 mm 2 mps 710 mmHg 67%
    10:00 +19°C° 0.1 mm 2 mps 710 mmHg 63%
    11:00 +20°C° 0.1 mm 2 mps 710 mmHg 59%
    12:00 +20°C° 0.3 mm 2 mps 710 mmHg 59%
    13:00 +21°C° 0.3 mm 3 mps 709 mmHg 59%
    14:00 +21°C° 0.3 mm 3 mps 709 mmHg 60%
    15:00 +21°C° 0.4 mm 2 mps 709 mmHg 61%
    16:00 +20°C° 0.4 mm 2 mps 708 mmHg 63%
    17:00 +20°C° 0.4 mm 2 mps 708 mmHg 65%
    18:00 +18°C° 0.3 mm 2 mps 708 mmHg 71%
    19:00 +18°C° 0.3 mm 1 mps 708 mmHg 77%
    20:00 +15°C° 0.3 mm 1 mps 707 mmHg 84%
    21:00 +14°C° 0.5 mm 1 mps 708 mmHg 86%
    22:00 +13°C° 0.5 mm 1 mps 708 mmHg 88%
    23:00 +13°C° 0.5 mm 1 mps 708 mmHg 91%

    Day after tomorrow, 24 May, Friday

    Time Temperature Precipitation Wind Pressure Humidity
    00:00 +12°C° 0 mm 1 mps 708 mmHg 92%
    01:00 +12°C° 0 mm 1 mps 707 mmHg 93%
    02:00 +11°C° 0 mm 1 mps 707 mmHg 94%
    03:00 +11°C° 0 mm 1 mps 707 mmHg 94%
    04:00 +11°C° 0 mm 1 mps 707 mmHg 95%
    05:00 +11°C° 0 mm 1 mps 707 mmHg 95%
    06:00 +12°C° 0 mm 1 mps 707 mmHg 90%
    07:00 +13°C° 0 mm 1 mps 707 mmHg 86%
    08:00 +15°C° 0 mm 2 mps 708 mmHg 81%
    09:00 +16°C° 0 mm 2 mps 708 mmHg 75%
    10:00 +17°C° 0 mm 2 mps 708 mmHg 70%
    11:00 +18°C° 0 mm 3 mps 708 mmHg 64%
    12:00 +19°C° 0.1 mm 3 mps 707 mmHg 62%
    13:00 +19°C° 0.1 mm 3 mps 707 mmHg 59%
    14:00 +20°C° 0.1 mm 3 mps 707 mmHg 57%
    15:00 +20°C° 0.3 mm 3 mps 707 mmHg 61%
    16:00 +19°C° 0.3 mm 3 mps 706 mmHg 65%
    17:00 +18°C° 0.3 mm 3 mps 706 mmHg 68%
    18:00 +17°C° 0.1 mm 3 mps 706 mmHg 74%
    19:00 +15°C° 0.1 mm 2 mps 706 mmHg 80%
    20:00 +13°C° 0.1 mm 2 mps 706 mmHg 86%
    21:00 +13°C° 0 mm 2 mps 706 mmHg 88%
    22:00 +12°C° 0 mm 1 mps 707 mmHg 90%
    23:00 +11°C° 0 mm 1 mps 707 mmHg 92%

    25 May, Saturday

    Time Temperature Precipitation Wind Pressure Humidity
    00:00 +11°C° 0 mm 1 mps 707 mmHg 92%
    01:00 +10°C° 0 mm 1 mps 707 mmHg 93%
    02:00 +10°C° 0 mm 1 mps 707 mmHg 94%
    03:00 +10°C° 0 mm 1 mps 707 mmHg 94%
    04:00 +10°C° 0 mm 1 mps 707 mmHg 94%
    05:00 +10°C° 0 mm 1 mps 707 mmHg 94%
    06:00 +12°C° 0 mm 2 mps 708 mmHg 89%
    07:00 +13°C° 0 mm 2 mps 708 mmHg 84%
    08:00 +15°C° 0 mm 2 mps 708 mmHg 79%
    09:00 +16°C° 0 mm 3 mps 709 mmHg 72%
    10:00 +18°C° 0 mm 3 mps 709 mmHg 65%
    11:00 +19°C° 0 mm 3 mps 709 mmHg 59%
    12:00 +20°C° 0 mm 3 mps 709 mmHg 55%
    13:00 +21°C° 0 mm 4 mps 709 mmHg 52%
    14:00 +22°C° 0 mm 4 mps 709 mmHg 48%
    15:00 +22°C° 0 mm 4 mps 709 mmHg 50%
    16:00 +22°C° 0 mm 4 mps 709 mmHg 51%
    17:00 +21°C° 0 mm 3 mps 709 mmHg 53%
    18:00 +19°C° 0 mm 3 mps 709 mmHg 60%
    19:00 +17°C° 0 mm 2 mps 709 mmHg 68%
    20:00 +15°C° 0 mm 1 mps 709 mmHg 76%
    21:00 +14°C° 0 mm 1 mps 709 mmHg 78%
    22:00 +13°C° 0 mm 1 mps 709 mmHg 81%
    23:00 +13°C° 0 mm 1 mps 710 mmHg 83%

    26 May, Sunday

    Time Temperature Precipitation Wind Pressure Humidity
    00:00 +12°C° 0 mm 1 mps 710 mmHg 83%
    01:00 +12°C° 0 mm 1 mps 710 mmHg 83%
    02:00 +11°C° 0 mm 1 mps 710 mmHg 83%
    03:00 +11°C° 0 mm 1 mps 710 mmHg 83%
    04:00 +11°C° 0 mm 1 mps 710 mmHg 83%
    05:00 +10°C° 0 mm 1 mps 710 mmHg 83%
    06:00 +13°C° 0 mm 1 mps 710 mmHg 76%
    07:00 +15°C° 0 mm 1 mps 710 mmHg 69%
    08:00 +18°C° 0 mm 1 mps 711 mmHg 62%
    09:00 +20°C° 0 mm 1 mps 711 mmHg 56%
    10:00 +22°C° 0 mm 1 mps 711 mmHg 49%
    11:00 +24°C° 0 mm 2 mps 711 mmHg 42%
    12:00 +25°C° 0 mm 2 mps 711 mmHg 40%
    13:00 +26°C° 0 mm 2 mps 710 mmHg 38%
    14:00 +27°C° 0 mm 2 mps 710 mmHg 35%
    15:00 +26°C° 0 mm 2 mps 710 mmHg 39%
    16:00 +26°C° 0 mm 2 mps 710 mmHg 43%
    17:00 +25°C° 0 mm 2 mps 710 mmHg 46%
    18:00 +23°C° 0.1 mm 2 mps 710 mmHg 54%
    19:00 +21°C° 0.1 mm 1 mps 709 mmHg 62%
    20:00 +19°C° 0.1 mm 1 mps 709 mmHg 70%
    21:00 +18°C° 0 mm 1 mps 709 mmHg 73%
    22:00 +16°C° 0 mm 1 mps 710 mmHg 75%
    23:00 +14°C° 0 mm 0 mps 710 mmHg 77%

    27 May, Monday

    Time Temperature Precipitation Wind Pressure Humidity
    00:00 +15°C° 0 mm 1 mps 710 mmHg 79%
    01:00 +15°C° 0 mm 1 mps 710 mmHg 80%
    02:00 +14°C° 0 mm 1 mps 710 mmHg 81%
    03:00 +14°C° 0 mm 1 mps 710 mmHg 82%
    04:00 +14°C° 0 mm 1 mps 710 mmHg 82%
    05:00 +14°C° 0 mm 1 mps 710 mmHg 82%
    06:00 +15°C° 0 mm 1 mps 710 mmHg 79%
    07:00 +18°C° 0 mm 1 mps 711 mmHg 75%
    08:00 +17°C° 0 mm 0 mps 711 mmHg 71%
    09:00 +21°C° 0 mm 1 mps 711 mmHg 64%
    10:00 +23°C° 0 mm 1 mps 712 mmHg 56%
    11:00 +25°C° 0 mm 1 mps 712 mmHg 49%
    12:00 +26°C° 0.1 mm 1 mps 712 mmHg 46%
    13:00 +27°C° 0.1 mm 1 mps 712 mmHg 44%
    14:00 +28°C° 0.1 mm 1 mps 711 mmHg 41%
    15:00 +27°C° 0.1 mm 1 mps 711 mmHg 43%
    16:00 +27°C° 0.1 mm 1 mps 711 mmHg 45%
    17:00 +26°C° 0.1 mm 1 mps 711 mmHg 46%
    18:00 +24°C° 0 mm 1 mps 711 mmHg 55%
    19:00 +22°C° 0 mm 1 mps 710 mmHg 63%
    20:00 +20°C° 0 mm 1 mps 710 mmHg 71%
    21:00 +19°C° 0 mm 1 mps 710 mmHg 74%
    22:00 +18°C° 0 mm 1 mps 711 mmHg 76%
    23:00 +18°C° 0 mm 1 mps 711 mmHg 79%
    Show more